Tracking 23611 objects as of 17-Sep-2021
HD Live streaming from Space Station
objects crossing your sky now
Track INSPIRATION-4

DMSP 5D-2 F13 DEB

Track DMSP 5D-2 F13 DEB now!
10-day predictions


NORAD ID: 40492
Int'l Code: 1995-015CF
Perigee: 794.2 km
Apogee: 838.8 km
Inclination: 98.7 °
Period: 101.1 minutes
Semi major axis: 7187 km
RCS: Unknown
Launch date: March 24, 1995
Source: United States (US)
Launch site: AIR FORCE WESTERN TEST RANGE (AFWTR)

Note: This is SATELLITE DEBRIS
aabbcc
Your satellite tracking list
Your tracking list is empty




NASA's NSSDC Master Catalog

Two Line Element Set (TLE):
1 40492U 95015CF  21259.28581593  .00001031  00000-0  45933-3 0  9991
2 40492  98.7206 281.2586 0031037   4.2154 355.9280 14.24742544338211
Source of the keplerian elements: AFSPC